Overview Statistics Trail Chart Weather Telemetry Raw packets
 

This is the latest recevied weather packets stored in our database for station/object KF0WJA. If no packets are shown the sender has not sent any weather packets the latest 10 day(s).

<< 38 39 40 41 42 43 44 >>
Time Temp. Humidity Pressure Rain* Wind** Luminosity Snow
1788404358 29.44° C 53% 1015.4 hPa 0 mm - 0 W/m² -
1788404053 29.44° C 53% 1015.4 hPa 0 mm - 0 W/m² -
1788403749 29.44° C 53% 1015.2 hPa 0 mm - 0 W/m² -
1788403448 29.44° C 53% 1015.3 hPa 0 mm - 0 W/m² -
1788403143 29.44° C 53% 1015.2 hPa 0 mm - 0 W/m² -
1788402839 29.44° C 53% 1015 hPa 0 mm - 0 W/m² -
1788402534 29.44° C 53% 1015.2 hPa 0 mm - 0 W/m² -
1788402233 30° C 53% 1015 hPa 0 mm - 0 W/m² -
1788401931 30° C 51% 1014.8 hPa 0 mm - 0 W/m² -
1788401628 30° C 51% 1014.9 hPa 0 mm - 0 W/m² -
1788401327 30° C 51% 1014.7 hPa 0 mm - 0 W/m² -
1788401022 30° C 51% 1014.9 hPa 0 mm - 0 W/m² -
1788400717 30° C 51% 1014.6 hPa 0 mm - 0 W/m² -
1788400413 30.56° C 50% 1014.7 hPa 0 mm - 0 W/m² -
1788400108 30.56° C 50% 1014.5 hPa 0 mm - 0 W/m² -
1788399807 30.56° C 49% 1014.6 hPa 0 mm - 0 W/m² -
1788399503 31.11° C 49% 1014.5 hPa 0 mm - 0 W/m² -
1788399202 31.11° C 48% 1014.4 hPa 0 mm - 0 W/m² -
1788398901 30.56° C 49% 1014.2 hPa 0 mm - 0 W/m² -
1788398596 31.11° C 48% 1014.2 hPa 0 mm - 0 W/m² -
1788398295 31.11° C 48% 1014.1 hPa 0 mm - 0 W/m² -
1788397995 31.11° C 47% 1014.3 hPa 0 mm - 0 W/m² -
1788397690 31.67° C 47% 1014.4 hPa 0 mm - 0 W/m² -
1788397386 32.22° C 46% 1014.2 hPa 0 mm - 0 W/m² -
1788397084 32.22° C 45% 1014.3 hPa 0 mm - 1 W/m² -

* Rain latest hour (hover to see other rain measurements)
** Current wind speed in m/s (hover to see current wind gust speed)